Aurora, NE

6:29 AM CDT on October 18, 2017 (GMT -0500)
Aurora Municipal

Weather History for KAUH - November, 2013

Change the Weather History Date:

Thursday, November 21, 2013

  Actual Average Record
Temperature  
Mean Temperature 28 °F -  
Max Temperature 38 °F 45 °F 72 °F (2012)
Min Temperature 18 °F 25 °F 0 °F (1964)
Degree Days  
Heating Degree Days 37    
Moisture  
Dew Point 18 °F    
Average Humidity 73    
Maximum Humidity 86    
Minimum Humidity 60    
Precipitation  
Precipitation 0.00 in - - ()
Sea Level Pressure  
Sea Level Pressure 30.31 in    
Wind  
Wind Speed 24 mph (North)    
Max Wind Speed 31 mph    
Max Gust Speed 43 mph    
Visibility 9 miles    
Events Snow    
Averages and records for this station are not official NWS values.
T = Trace of Precipitation, MM = Missing Value Source: NWS Daily Summary

Daily Weather History Graph

Daily Weather History Graph

Search for Another Location

Airport or City:

Trip Planner

Search our weather history database for the weather conditions in past years. The results will help you decide how hot, cold, wet, or windy it might be!

Date:

Astronomy

Nov. 21, 2013 Rise Set
Actual Time 7:26 AM CST 5:08 PM CST
Civil Twilight 6:56 AM CST 5:38 PM CST
Nautical Twilight 6:23 AM CST 6:12 PM CST
Astronomical Twilight 5:50 AM CST 6:45 PM CST
Moon 8:47 PM CST (11/21) 10:33 AM CST (11/21)
Length of Visible Light 10h 42m
Length of Day
9h 42m
Waning Gibbous, 85% of the Moon is Illuminated
Nov 21
Waning Gibbous
Nov 25
Last Quarter
Dec 2
New
Dec 9
First Quarter
Dec 17
Full

Hourly Weather History & Observations

Time (CST) Temp. Windchill Dew Point Humidity Pressure Visibility Wind Dir Wind Speed Gust Speed Precip Events Conditions
12:15 AM 38.1 °F 28.8 °F 32.9 °F 81% 29.99 in 10.0 mi NNW 17.3 mph - N/A   Clear
12:35 AM 37.4 °F 26.4 °F 32.0 °F 81% 30.01 in 10.0 mi North 23.0 mph 31.1 mph N/A   Clear
12:55 AM 35.6 °F 23.2 °F 30.4 °F 81% 30.02 in 10.0 mi North 26.5 mph 32.2 mph N/A   Clear
1:15 AM 34.7 °F 21.1 °F 29.7 °F 82% 30.02 in 10.0 mi North 31.1 mph 36.8 mph N/A   Clear
1:35 AM 33.8 °F 20.8 °F 28.9 °F 82% 30.03 in 10.0 mi North 26.5 mph 34.5 mph N/A   Clear
1:55 AM 32.9 °F 18.9 °F 28.0 °F 82% 30.04 in 10.0 mi North 29.9 mph 38.0 mph N/A   Clear
2:15 AM 32.4 °F 18.6 °F 27.5 °F 82% 30.05 in 10.0 mi North 27.6 mph 42.6 mph N/A   Clear
2:35 AM 32.0 °F 17.9 °F 27.5 °F 83% 30.05 in 10.0 mi North 28.8 mph 32.2 mph N/A   Scattered Clouds
2:55 AM 32.0 °F 18.9 °F 26.6 °F 80% 30.06 in 10.0 mi North 24.2 mph 31.1 mph N/A   Scattered Clouds
3:15 AM 31.8 °F 17.6 °F 25.7 °F 78% 30.07 in 10.0 mi North 28.8 mph 34.5 mph N/A   Clear
3:35 AM 31.3 °F 16.9 °F 24.6 °F 76% 30.08 in 10.0 mi North 28.8 mph 38.0 mph N/A   Clear
3:55 AM 31.1 °F 16.9 °F 23.2 °F 72% 30.11 in 10.0 mi North 27.6 mph 36.8 mph N/A   Clear
4:15 AM 30.2 °F 16.5 °F 22.6 °F 73% 30.12 in 10.0 mi North 24.2 mph 31.1 mph N/A   Clear
4:35 AM 29.3 °F 14.5 °F 21.2 °F 72% 30.14 in 10.0 mi North 27.6 mph 36.8 mph N/A   Clear
4:55 AM 29.3 °F 14.7 °F 21.0 °F 71% 30.13 in 10.0 mi North 26.5 mph 38.0 mph N/A   Scattered Clouds
5:15 AM 29.3 °F 15.6 °F 21.0 °F 71% 30.15 in 10.0 mi North 23.0 mph 34.5 mph N/A   Mostly Cloudy
5:35 AM 29.1 °F 16.0 °F 20.7 °F 71% 30.16 in 10.0 mi North 20.7 mph 28.8 mph N/A   Overcast
5:55 AM 27.9 °F 13.7 °F 19.4 °F 71% 30.19 in 10.0 mi North 23.0 mph 32.2 mph N/A   Overcast
6:15 AM 27.5 °F 14.6 °F 18.5 °F 69% 30.20 in 10.0 mi North 18.4 mph 26.5 mph N/A   Overcast
6:35 AM 26.6 °F 11.7 °F 17.4 °F 68% 30.21 in 10.0 mi North 24.2 mph 33.4 mph N/A   Overcast
6:55 AM 26.2 °F 11.2 °F 16.7 °F 67% 30.23 in 10.0 mi North 24.2 mph 29.9 mph N/A   Overcast
7:15 AM 26.1 °F 11.0 °F 16.7 °F 68% 30.24 in 10.0 mi North 24.2 mph 34.5 mph N/A   Overcast
7:35 AM 25.7 °F 9.9 °F 16.2 °F 67% 30.24 in 10.0 mi North 26.5 mph 36.8 mph N/A   Overcast
7:55 AM 25.5 °F 9.4 °F 16.0 °F 67% 30.25 in 10.0 mi North 27.6 mph 34.5 mph N/A   Overcast
8:15 AM 25.3 °F 9.4 °F 15.6 °F 67% 30.25 in 10.0 mi North 26.5 mph 35.7 mph N/A   Overcast
8:35 AM 25.2 °F 8.9 °F 15.4 °F 67% 30.25 in 10.0 mi North 27.6 mph 40.3 mph N/A   Overcast
8:55 AM 25.3 °F 9.7 °F 15.6 °F 67% 30.25 in 10.0 mi North 25.3 mph 32.2 mph N/A   Overcast
9:15 AM 25.5 °F 9.4 °F 15.8 °F 67% 30.27 in 10.0 mi North 27.6 mph 32.2 mph N/A   Overcast
9:35 AM 25.2 °F 8.9 °F 15.1 °F 66% 30.27 in 10.0 mi North 27.6 mph 34.5 mph N/A   Overcast
9:55 AM 24.8 °F 9.0 °F 14.7 °F 66% 30.28 in 10.0 mi North 25.3 mph 34.5 mph N/A   Overcast
10:15 AM 25.0 °F 9.9 °F 14.7 °F 65% 30.29 in 10.0 mi North 23.0 mph 34.5 mph N/A   Overcast
10:35 AM 24.8 °F 9.3 °F 14.0 °F 64% 30.30 in 10.0 mi North 24.2 mph 29.9 mph N/A   Overcast
10:55 AM 24.8 °F 9.0 °F 13.8 °F 63% 30.32 in 10.0 mi North 25.3 mph 31.1 mph N/A   Overcast
11:15 AM 24.8 °F 9.6 °F 13.6 °F 63% 30.32 in 10.0 mi North 23.0 mph 32.2 mph N/A   Overcast
11:35 AM 24.8 °F 9.6 °F 13.8 °F 63% 30.32 in 10.0 mi North 23.0 mph 28.8 mph N/A   Overcast
11:55 AM 25.2 °F 10.8 °F 13.5 °F 61% 30.32 in 10.0 mi North 20.7 mph 26.5 mph N/A   Overcast
12:15 PM 25.2 °F 11.2 °F 13.6 °F 62% 30.32 in 10.0 mi NNE 19.6 mph 29.9 mph N/A   Overcast
12:35 PM 25.3 °F 10.3 °F 13.3 °F 60% 30.33 in 10.0 mi North 23.0 mph 28.8 mph N/A   Overcast
12:55 PM 25.5 °F 12.0 °F 13.5 °F 60% 30.34 in 10.0 mi North 18.4 mph 29.9 mph N/A   Overcast
1:15 PM 24.8 °F 9.6 °F 13.1 °F 61% 30.34 in 10.0 mi North 23.0 mph 29.9 mph N/A   Overcast
1:35 PM 25.3 °F 9.7 °F 13.1 °F 60% 30.34 in 10.0 mi North 25.3 mph 31.1 mph N/A   Overcast
1:55 PM 24.8 °F 9.3 °F 12.9 °F 61% 30.34 in 10.0 mi North 24.2 mph 31.1 mph N/A   Overcast
2:15 PM 24.6 °F 8.5 °F 12.9 °F 61% 30.34 in 10.0 mi North 26.5 mph 32.2 mph N/A   Overcast
2:35 PM 25.2 °F 10.1 °F 13.1 °F 60% 30.32 in 10.0 mi North 23.0 mph 29.9 mph N/A   Overcast
2:55 PM 24.8 °F 8.7 °F 13.1 °F 61% 30.34 in 10.0 mi North 26.5 mph 33.4 mph N/A   Overcast
3:15 PM 24.4 °F 7.9 °F 13.6 °F 64% 30.36 in 10.0 mi North 27.6 mph 34.5 mph N/A   Overcast
3:35 PM 23.9 °F 7.8 °F 13.8 °F 65% 30.37 in 10.0 mi North 25.3 mph 32.2 mph N/A   Overcast
3:55 PM 23.9 °F 7.8 °F 14.0 °F 66% 30.38 in 10.0 mi North 25.3 mph 31.1 mph N/A   Overcast
4:15 PM 23.5 °F 7.3 °F 14.0 °F 67% 30.39 in 10.0 mi North 25.3 mph 32.2 mph N/A   Overcast
4:35 PM 22.8 °F 6.0 °F 13.8 °F 68% 30.40 in 10.0 mi North 26.5 mph 32.2 mph N/A   Overcast
4:55 PM 22.6 °F 6.8 °F 13.6 °F 68% 30.42 in 10.0 mi North 23.0 mph 29.9 mph N/A   Overcast
5:15 PM 22.1 °F 6.8 °F 14.5 °F 73% 30.42 in 5.0 mi North 20.7 mph 29.9 mph N/A Snow Light Snow
5:35 PM 21.2 °F 4.5 °F 15.8 °F 80% 30.42 in 2.5 mi North 24.2 mph 29.9 mph N/A Snow Light Snow
5:55 PM 20.8 °F 4.7 °F 16.7 °F 84% 30.44 in 2.0 mi North 21.9 mph 27.6 mph N/A Snow Light Snow
6:15 PM 20.7 °F 4.5 °F 16.5 °F 84% 30.45 in 3.0 mi North 21.9 mph 27.6 mph N/A Snow Light Snow
6:35 PM 20.3 °F 4.4 °F 16.2 °F 84% 30.45 in 2.5 mi North 20.7 mph 31.1 mph N/A Snow Light Snow
6:55 PM 20.3 °F 3.7 °F 16.0 °F 83% 30.47 in 3.0 mi North 23.0 mph 28.8 mph N/A Snow Light Snow
7:15 PM 20.7 °F 4.5 °F 16.5 °F 84% 30.47 in 5.0 mi North 21.9 mph 31.1 mph N/A Snow Light Snow
7:35 PM 20.5 °F 5.5 °F 16.7 °F 85% 30.48 in 5.0 mi North 18.4 mph 26.5 mph N/A Snow Light Snow
7:55 PM 20.3 °F 4.0 °F 16.5 °F 85% 30.50 in 3.0 mi North 21.9 mph 28.8 mph N/A Snow Light Snow
8:15 PM 20.1 °F 5.0 °F 16.5 °F 86% 30.50 in 2.5 mi North 18.4 mph 27.6 mph N/A Snow Light Snow
8:35 PM 19.9 °F 2.8 °F 16.0 °F 85% 30.52 in 2.5 mi North 24.2 mph 31.1 mph N/A Snow Light Snow
8:55 PM 19.6 °F 3.9 °F 15.6 °F 85% 30.53 in 5.0 mi North 19.6 mph 29.9 mph N/A Snow Light Snow
9:15 PM 19.4 °F 1.8 °F 15.1 °F 83% 30.54 in 5.0 mi North 25.3 mph 29.9 mph N/A Snow Light Snow
9:35 PM 19.4 °F 3.6 °F 15.6 °F 85% 30.54 in 4.0 mi North 19.6 mph 28.8 mph N/A Snow Light Snow
9:55 PM 19.8 °F 2.6 °F 15.1 °F 82% 30.55 in 10.0 mi NNW 24.2 mph 29.9 mph N/A   Overcast
10:15 PM 19.9 °F 3.2 °F 14.5 °F 80% 30.56 in 10.0 mi NNW 23.0 mph 32.2 mph N/A   Overcast
10:35 PM 19.8 °F 4.1 °F 14.5 °F 80% 30.57 in 10.0 mi NNW 19.6 mph 28.8 mph N/A   Overcast
10:55 PM 19.2 °F 3.0 °F 13.3 °F 78% 30.57 in 10.0 mi North 20.7 mph 29.9 mph N/A   Mostly Cloudy
11:15 PM 18.9 °F 2.1 °F 12.7 °F 77% 30.59 in 10.0 mi North 21.9 mph - N/A   Mostly Cloudy
11:35 PM 18.5 °F 3.8 °F 12.4 °F 77% 30.59 in 10.0 mi North 16.1 mph - N/A   Clear
11:55 PM 18.7 °F 3.6 °F 12.9 °F 78% 30.59 in 10.0 mi NNW 17.3 mph - N/A   Mostly Cloudy